Weather History for Clinton, BC

Change the Weather History Date:

Wednesday, March 26, 2014

  Actual Average Record
Temperature  
Mean Temperature 26 °F -  
Max Temperature 32 °F 41 °F 50 °F (2012)
Min Temperature 21 °F 23 °F 15 °F (2009)
Degree Days  
Heating Degree Days 38    
Moisture  
Dew Point 19 °F    
Average Humidity 66    
Maximum Humidity 80    
Minimum Humidity 45    
Precipitation  
Precipitation 0.02 in - - ()
Sea Level Pressure  
Sea Level Pressure 29.52 in    
Wind  
Wind Speed 5 mph ()    
Max Wind Speed 9 mph    
Max Gust Speed -    
Visibility 4.1 miles    
Events      
Averages and records for this station are not official NWS values.
T = Trace of Precipitation, MM = Missing Value Source: Averaged Metar Reports

Daily Weather History Graph

Daily Weather History Graph

Search for Another Location

Airport:

Trip Planner

Search our weather history database for the weather conditions in past years. The results will help you decide how hot, cold, wet, or windy it might be!

Date:

Astronomy

Mar. 26, 2014 Rise Set
Actual Time 6:54 AM PDT 7:29 PM PDT
Civil Twilight 6:21 AM PDT 8:02 PM PDT
Nautical Twilight 5:41 AM PDT 8:42 PM PDT
Astronomical Twilight 5:00 AM PDT 9:24 PM PDT
Moon 4:35 AM PDT (3/26) 2:48 PM PDT (3/26)
Length of Visible Light 13h 41m
Length of Day
12h 34m
Waning Crescent, 21% of the Moon is Illuminated
Mar 26
Waning Crescent
Mar 30
New
Apr 7
First Quarter
Apr 15
Full
Apr 22
Last Quarter

Hourly Weather History & Observations

Time (PDT) Temp. Windchill Dew Point Humidity Pressure Visibility Wind Dir Wind Speed Gust Speed Precip Events Conditions
12:00 AM 32.0 °F 27.5 °F 24.8 °F 75% 29.47 in 0.1 mi SSW 4.6 mph - N/A   Unknown
12:32 AM 32.0 °F 26.4 °F 24.8 °F 75% 29.37 in 0.6 mi South 5.8 mph - N/A   Unknown
12:34 AM 32.0 °F 28.7 °F 24.8 °F 75% 29.37 in 1.2 mi South 3.5 mph - N/A   Unknown
12:42 AM 32.0 °F 27.5 °F 24.8 °F 75% 29.37 in 0.8 mi South 4.6 mph - N/A   Unknown
12:43 AM 32.0 °F 27.5 °F 24.8 °F 75% 29.37 in 0.6 mi South 4.6 mph - N/A   Unknown
12:45 AM 32.0 °F 26.4 °F 24.8 °F 75% 29.37 in 0.4 mi WSW 5.8 mph - N/A   Unknown
12:52 AM 32.0 °F - 24.8 °F 75% 29.37 in 0.4 mi SW 2.3 mph - N/A   Unknown
12:54 AM 32.0 °F 28.7 °F 24.8 °F 75% 29.38 in 0.8 mi South 3.5 mph - N/A   Unknown
12:56 AM 32.0 °F 27.5 °F 24.8 °F 75% 29.38 in 1.6 mi SSW 4.6 mph - N/A   Unknown
12:59 AM 32.0 °F 27.5 °F 24.8 °F 75% 29.37 in 2.0 mi South 4.6 mph - N/A   Unknown
1:00 AM 32.0 °F 27.5 °F 24.8 °F 75% 29.47 in 2.0 mi SSW 4.6 mph - N/A   Unknown
1:07 AM 32.0 °F 26.4 °F 23.0 °F 69% 29.37 in 2.2 mi SSW 5.8 mph - N/A   Unknown
1:13 AM 32.0 °F 25.6 °F 24.8 °F 75% 29.37 in 2.5 mi South 6.9 mph - N/A   Unknown
1:14 AM 32.0 °F 25.6 °F 24.8 °F 75% 29.37 in 1.8 mi South 6.9 mph - N/A   Unknown
1:15 AM 32.0 °F 26.4 °F 24.8 °F 75% 29.37 in 0.8 mi SSW 5.8 mph - N/A   Unknown
1:16 AM 32.0 °F 25.6 °F 24.8 °F 75% 29.37 in 0.6 mi South 6.9 mph - N/A   Unknown
1:17 AM 32.0 °F 26.4 °F 24.8 °F 75% 29.37 in 0.4 mi South 5.8 mph - N/A   Unknown
1:21 AM 32.0 °F 27.5 °F 24.8 °F 75% 29.37 in 0.1 mi South 4.6 mph - N/A   Unknown
1:47 AM 30.2 °F - 24.8 °F 80% 29.38 in 0.5 mi SSW 2.3 mph - N/A   Unknown
1:51 AM 30.2 °F 25.4 °F 23.0 °F 75% 29.38 in 1.2 mi SSW 4.6 mph - N/A   Unknown
2:00 AM 30 °F - 23 °F 67% 29.48 in 2 mi SSW 3.5 mph - -  
2:00 AM 30.2 °F 25.4 °F 23.0 °F 75% 29.48 in 1.6 mi WSW 4.6 mph - N/A   Unknown
2:17 AM 30.2 °F 26.7 °F 23.0 °F 75% 29.39 in 4.0 mi North 3.5 mph - N/A   Unknown
2:45 AM 32.0 °F 26.4 °F 24.8 °F 75% 29.39 in 7.0 mi WNW 5.8 mph - N/A   Unknown
2:46 AM 32.0 °F 26.4 °F 24.8 °F 75% 29.39 in 7.0 mi WNW 5.8 mph - N/A   Unknown
3:00 AM 32.0 °F 27.5 °F 24.8 °F 75% 29.48 in 9.0 mi NW 4.6 mph - N/A   Unknown
3:45 AM 32.0 °F 25.6 °F 23.0 °F 69% 29.40 in 9.0 mi NW 6.9 mph - N/A   Unknown
3:47 AM 32.0 °F 26.4 °F 23.0 °F 69% 29.40 in 9.0 mi NW 5.8 mph - N/A   Unknown
4:00 AM 32.0 °F 26.4 °F 23.0 °F 69% 29.50 in 8.0 mi NW 5.8 mph - N/A   Unknown
4:12 AM 32.0 °F 26.4 °F 23.0 °F 69% 29.41 in 5.0 mi NNW 5.8 mph - N/A   Unknown
4:19 AM 32.0 °F 25.6 °F 23.0 °F 69% 29.41 in 4.0 mi NW 6.9 mph - N/A   Unknown
5:00 AM 31 °F - 22 °F 58% 29.51 in 9 mi NW 6.9 mph - -  
5:00 AM 30.2 °F 24.3 °F 21.2 °F 69% 29.51 in 9.0 mi NW 5.8 mph - N/A   Unknown
6:00 AM 30.2 °F 25.4 °F 21.2 °F 69% 29.53 in 9.0 mi North 4.6 mph - N/A   Unknown
6:13 AM 30.2 °F 25.4 °F 21.2 °F 69% 29.43 in 9.0 mi North 4.6 mph - N/A   Unknown
6:19 AM 30.2 °F - 21.2 °F 69% 29.44 in 9.0 mi North 2.3 mph - N/A   Unknown
7:00 AM 28.4 °F 22.2 °F 19.4 °F 69% 29.55 in 9.0 mi North 5.8 mph - N/A   Unknown
7:14 AM 28.4 °F 23.3 °F 19.4 °F 69% 29.46 in 9.0 mi North 4.6 mph - N/A   Unknown
7:25 AM 28.4 °F 23.3 °F 19.4 °F 69% 29.46 in 3.0 mi North 4.6 mph - N/A   Unknown
7:26 AM 28.4 °F 24.6 °F 17.6 °F 64% 29.46 in 2.5 mi North 3.5 mph - N/A   Unknown
7:38 AM 28.4 °F 24.6 °F 19.4 °F 69% 29.47 in 2.5 mi NNE 3.5 mph - N/A   Unknown
7:52 AM 28.4 °F 22.2 °F 17.6 °F 64% 29.47 in 2.5 mi NNE 5.8 mph - N/A   Unknown
7:58 AM 28.4 °F 21.2 °F 19.4 °F 69% 29.47 in 1.2 mi North 6.9 mph - N/A   Unknown
8:00 AM 28 °F - 18 °F 56% 29.57 in 1 mi NNE 6.9 mph - -  
8:00 AM 28.4 °F 22.2 °F 19.4 °F 69% 29.57 in 1.0 mi NNE 5.8 mph - N/A   Unknown
8:03 AM 28.4 °F - 19.4 °F 69% 29.47 in 0.8 mi North 2.3 mph - N/A   Unknown
8:04 AM 28.4 °F - 17.6 °F 64% 29.47 in 0.8 mi Calm Calm - N/A   Unknown
8:08 AM 28.4 °F 24.6 °F 17.6 °F 64% 29.47 in 0.8 mi NNW 3.5 mph - N/A   Unknown
8:16 AM 26.6 °F - 17.6 °F 69% 29.48 in 1.5 mi Calm Calm - N/A   Unknown
8:17 AM 26.6 °F - 17.6 °F 69% 29.48 in 1.6 mi NNE 2.3 mph - N/A   Unknown
8:31 AM 26.6 °F - 17.6 °F 69% 29.48 in 1.2 mi North 2.3 mph - N/A   Unknown
8:39 AM 26.6 °F 21.2 °F 17.6 °F 69% 29.48 in 1.2 mi North 4.6 mph - N/A   Unknown
8:51 AM 26.6 °F 20.0 °F 17.6 °F 69% 29.49 in 2.0 mi NNE 5.8 mph - N/A   Unknown
9:00 AM 26.6 °F 17.5 °F 17.6 °F 69% 29.60 in 3.0 mi North 9.2 mph - N/A   Unknown
9:40 AM 26.6 °F 21.2 °F 15.8 °F 64% 29.50 in 8.0 mi North 4.6 mph - N/A   Unknown
10:00 AM 26.6 °F 21.2 °F 15.8 °F 64% 29.62 in 9.0 mi NNE 4.6 mph - N/A   Unknown
11:00 AM 26 °F - 15 °F 50% 29.64 in 9 mi North 6.9 mph - -  
11:00 AM 26.6 °F 19.1 °F 14.0 °F 59% 29.64 in 9.0 mi North 6.9 mph - N/A   Unknown
12:00 PM 28.4 °F 22.2 °F 14.0 °F 55% 29.65 in 9.0 mi NNE 5.8 mph - N/A   Unknown
1:00 PM 28.4 °F - 14.0 °F 55% 29.66 in 9.0 mi NNW 2.3 mph - N/A   Unknown
2:00 PM 28 °F - 15 °F 45% 29.67 in 3 mi North 6.9 mph - -  
2:00 PM 28.4 °F 21.2 °F 15.8 °F 59% 29.67 in 3.0 mi NNE 6.9 mph - N/A   Unknown
3:00 PM 30.2 °F 23.4 °F 14.0 °F 51% 29.66 in 5.0 mi NNW 6.9 mph - N/A   Unknown
4:00 PM 30.2 °F 23.4 °F 14.0 °F 51% 29.67 in 7.0 mi NNW 6.9 mph - N/A   Unknown
4:20 PM 28.4 °F 23.3 °F 15.8 °F 59% 29.57 in 2.5 mi NNW 4.6 mph - N/A   Unknown
4:29 PM 28.4 °F 24.6 °F 15.8 °F 59% 29.57 in 1.8 mi NNW 3.5 mph - N/A   Unknown
4:33 PM 28.4 °F 24.6 °F 17.6 °F 64% 29.57 in 1.2 mi NNW 3.5 mph - N/A   Unknown
4:39 PM 28.4 °F 23.3 °F 17.6 °F 64% 29.57 in 0.8 mi NNW 4.6 mph - N/A   Unknown
4:58 PM 28.4 °F 22.2 °F 17.6 °F 64% 29.57 in 1.0 mi NNW 5.8 mph - N/A   Unknown
5:00 PM 28 °F - 17 °F 52% 29.68 in 1 mi NNW 4.6 mph - -  
5:00 PM 28.4 °F 23.3 °F 17.6 °F 64% 29.68 in 1.2 mi NNW 4.6 mph - N/A   Unknown
5:10 PM 28.4 °F 23.3 °F 17.6 °F 64% 29.57 in 1.2 mi NNW 4.6 mph - N/A   Unknown
5:13 PM 28.4 °F 22.2 °F 17.6 °F 64% 29.57 in 2.5 mi NNW 5.8 mph - N/A   Unknown
5:25 PM 28.4 °F 24.6 °F 17.6 °F 64% 29.57 in 2.5 mi North 3.5 mph - N/A   Unknown
5:26 PM 28.4 °F 23.3 °F 17.6 °F 64% 29.57 in 3.0 mi NNW 4.6 mph - N/A   Unknown
5:48 PM 26.6 °F 19.1 °F 15.8 °F 64% 29.57 in 3.0 mi North 6.9 mph - N/A   Unknown
6:00 PM 26.6 °F 22.6 °F 15.8 °F 64% 29.69 in 2.5 mi NNW 3.5 mph - N/A   Unknown
6:21 PM 26.6 °F 20.0 °F 15.8 °F 64% 29.58 in 3.0 mi North 5.8 mph - N/A   Unknown
6:39 PM 26.6 °F 21.2 °F 15.8 °F 64% 29.58 in 3.0 mi North 4.6 mph - N/A   Unknown
6:44 PM 26.6 °F 20.0 °F 15.8 °F 64% 29.58 in 2.5 mi North 5.8 mph - N/A   Unknown
7:00 PM 26.6 °F 20.0 °F 15.8 °F 64% 29.70 in 3.0 mi NNE 5.8 mph - N/A   Unknown
7:04 PM 26.6 °F 20.0 °F 15.8 °F 64% 29.58 in 3.0 mi North 5.8 mph - N/A   Unknown
7:05 PM 26.6 °F 21.2 °F 15.8 °F 64% 29.58 in 3.0 mi North 4.6 mph - N/A   Unknown
7:27 PM 26.6 °F 21.2 °F 15.8 °F 64% 29.59 in 3.0 mi North 4.6 mph - N/A   Unknown
7:55 PM 24.8 °F 20.5 °F 14.0 °F 64% 29.59 in 6.0 mi North 3.5 mph - N/A   Unknown
8:00 PM 25 °F - 14 °F 50% 29.72 in 6 mi North 3.5 mph - -  
8:00 PM 24.8 °F 20.5 °F 14.0 °F 64% 29.72 in 6.0 mi North 3.5 mph - N/A   Unknown
9:00 PM 24.8 °F - 12.2 °F 59% 29.73 in 9.0 mi North 2.3 mph - N/A   Unknown
9:17 PM 23.0 °F 18.4 °F 12.2 °F 63% 29.61 in 9.0 mi North 3.5 mph - N/A   Unknown
9:43 PM 23.0 °F 15.8 °F 12.2 °F 63% 29.61 in 9.0 mi North 5.8 mph - N/A   Unknown
10:00 PM 23.0 °F 17.0 °F 12.2 °F 63% 29.76 in 9.0 mi NNW 4.6 mph - N/A   Unknown
10:48 PM 21.2 °F 14.9 °F 10.4 °F 63% 29.62 in 9.0 mi NNW 4.6 mph - N/A   Unknown
11:00 PM 22 °F - 11 °F 49% 29.76 in 9 mi NNW 5.8 mph - -  
11:00 PM 21.2 °F 14.9 °F 10.4 °F 63% 29.76 in 9.0 mi NNW 4.6 mph - N/A   Unknown
11:25 PM 21.2 °F 13.6 °F 10.4 °F 63% 29.63 in 9.0 mi North 5.8 mph - N/A   Unknown
11:42 PM 21.2 °F 16.4 °F 10.4 °F 63% 29.63 in 9.0 mi North 3.5 mph - N/A   Unknown
11:45 PM 21.2 °F 14.9 °F 10.4 °F 63% 29.63 in 9.0 mi NNW 4.6 mph - N/A   Unknown